Location: Most
(50.5133°N, 13.6207°E)
Time: 21:12:48
(UTC+02:00)

Tiangong - Pass Details

Date: 02 October 2021
Orbit: 382 x 385 km, 41.5° (Epoch: 16 October)

Event Time Altitude Azimuth Distance (km) Brightness Sun altitude
Exits shadow 04:53:19 12° 146° (SE) 1,262 3.8 -21.7°
Drops below altitude 10° 04:53:58 10° 135° (SE) 1,398 4.2 -21.6°
Sets 04:56:40 0° 110° (ESE) 2,251 5.7 -21.2°
